Location: Marshall
(39.8477°N, 87.1868°W)
Time: 02:52:57
(UTC+00:00)

BlueWalker 3 - Pass Details

Date: 13 May 2026
Orbit: 447 x 456 km, 53.2° (Epoch: 9 June)

Event Time Altitude Azimuth Distance (km) Brightness Sun altitude
Exits shadow 08:41:57 - 305° (NW) 2,046 4.9 -18.6°
Maximum altitude 08:45:14 11° 350° (N) 1,529 4.8 -18.2°
Drops below altitude 10° 08:46:09 10° 5° (N) 1,576 5.2 -18.1°
Sets 08:49:51 0° 45° (NE) 2,451 7.2 -17.6°
